[[{"header":{"parameterUnit":"m.s-1","parameterCategory":1,"la1":30.2991,"la2":30.254,"lo1":-89.0895,"lo2":-89.0444,"dy":0.0017,"dx":0.0017,"nx":28,"ny":28,"refTime":"2023-08-05T09:00:00:Z","depth":0,"parameterNumber":2,"parameterNumberName":"U-component_of_WINDS"},"data":[0,0,0,0,0,0,0,0,0,0,0,0,0,0,0,0,0,0,0,0,0,0,0,0,0,0,0,0,0,0,0,0,0,0,0,0,0,0,0,0,0,0,0,0,0,0,0,0,0,0,0,0,0,0,0,0,0,0,6.2097,6.2098,0,6.2218,6.2219,6.2221,6.2117,6.2112,6.2108,6.2104,6.2229,6.2236,6.2244,0,0,0,0,0,0,0,0,0,0,0,0,0,6.1774,6.178,6.2096,6.2098,6.2099,6.2218,6.2219,6.2221,6.2117,6.2112,6.2107,6.2102,6.2227,6.2235,6.2244,0,0,0,0,0,0,0,0,0,0,0,0,0,6.1906,6.1782,6.2096,6.2062,6.206,6.2217,6.2219,6.2221,6.2119,6.2112,6.2106,6.21,6.2224,6.2235,6.2245,6.2443,0,0,6.2279,6.2284,0,0,0,0,0,0,0,0,6.1899,6.1918,6.2066,6.2065,6.2063,6.2145,6.2151,6.2296,6.212,6.2096,6.2104,6.2096,6.2207,6.2219,6.2256,6.2449,6.2454,6.228,6.2287,6.2291,6.2295,0,0,0,0,0,0,0,6.189,6.1912,6.2144,6.2068,6.2066,6.204,6.2052,6.2178,6.2186,6.2098,6.2091,6.2106,6.2205,6.2245,6.2258,6.2456,6.228,6.229,6.2296,6.2301,6.2813,6.2819,0,0,0,0,0,0,6.1884,6.1906,6.2141,6.2148,6.1963,6.2051,6.2064,6.2126,6.2185,6.2187,6.2112,6.2101,6.223,6.2245,6.2262,6.2493,6.2291,6.2302,6.2308,6.2806,6.2814,6.2822,0,0,0,0,0,0,6.1878,6.1906,6.2136,6.2025,6.2052,6.2064,6.2133,6.2131,6.2172,6.2195,6.2196,6.2152,6.2225,6.2246,6.2398,6.2496,6.2307,6.2317,6.2798,6.2808,6.2818,6.2961,0,0,0,0,0,0,6.1869,6.1905,6.198,6.2027,6.2058,6.227,6.2139,6.2138,6.2191,6.2178,6.2233,6.2236,6.2222,6.2382,6.2409,6.2508,6.2325,6.2789,6.2802,6.2815,6.2947,6.2975,6.2998,0,0,0,0,0,6.1858,6.2017,6.1985,6.2013,6.2153,6.2276,6.2294,6.2274,6.2199,6.2275,6.2289,6.2234,6.2482,6.2398,6.2427,6.2532,6.2782,6.2798,6.2814,6.2936,6.2969,6.2998,0,0,0,0,0,0,6.1981,6.2022,6.1987,6.2166,6.2218,6.2258,6.2353,6.2311,6.2386,6.2371,6.2343,6.2357,6.2515,6.2539,6.2445,6.2724,6.262,6.2642,6.2703,6.2735,6.276,6.275,6.2334,0,0,0,0,0,6.203,6.2126,6.2157,6.2311,6.2339,6.2342,6.2395,6.2375,6.2428,6.245,6.2476,6.253,6.2619,6.2678,6.2762,6.2951,6.2959,6.3037,6.3062,6.3083,6.3102,6.32,6.3234,6.2873,6.2873,6.2873,0,0,6.213,6.2164,6.2227,6.2337,6.2375,6.2475,6.2361,6.2473,6.2546,6.2467,6.261,6.2631,6.2689,6.2859,6.2935,6.2883,6.3204,6.3103,6.312,6.3128,6.322,6.3254,6.3284,6.2884,6.2882,6.2881,0,0,6.2363,6.24,6.2531,6.2571,6.263,6.263,6.2662,6.2708,6.2718,6.2862,6.2804,6.2891,6.3047,6.3089,6.3131,6.3378,6.3328,6.3406,6.3539,6.3635,6.3663,6.3688,6.3773,6.3804,6.3425,6.3426,6.3426,0,6.248,6.2628,6.2604,6.2718,6.2767,6.27,6.2831,6.2872,6.2955,6.299,6.2931,6.3123,6.3158,6.3334,6.3394,6.3432,6.3465,6.3399,6.3661,6.3686,6.3709,6.3789,6.3822,6.3435,6.3434,6.3433,6.3432,0,6.2767,6.2871,6.297,6.3051,6.3111,6.3234,6.3227,6.3291,6.3266,6.3272,6.3417,6.3456,6.3545,6.3586,6.3564,6.376,6.3725,6.3665,6.3559,6.3752,6.3827,6.3858,6.3447,6.3444,6.3441,6.3439,0,0,6.3082,6.3146,6.3183,6.3217,6.3276,6.3355,6.3474,6.356,6.3614,6.3674,6.3771,6.3903,6.3847,6.3894,6.3876,6.396,6.4149,6.3888,6.3889,6.3933,6.4363,6.4406,6.4443,6.4117,6.4123,6.4128,6.4357,0,6.3314,6.352,6.3501,6.3696,6.3789,6.3726,6.3829,6.3876,6.3885,6.3965,6.3974,6.4067,6.3987,6.4015,6.4096,6.4109,6.4234,6.4092,6.4205,6.421,6.419,6.4482,6.4529,6.4744,6.4387,6.4392,6.4395,0,6.3614,6.3682,6.3886,6.3928,6.3966,6.4059,6.4135,6.4213,6.4264,6.4264,6.4317,6.4283,6.4401,6.4294,6.4455,6.4358,6.4403,6.4417,6.4425,6.4432,6.4312,6.4495,6.4812,6.4843,6.4442,6.4438,6.4435,0,6.3818,6.3962,6.4101,6.4133,6.4187,6.4253,6.4278,6.4323,6.4375,6.4441,6.4474,6.4554,6.4597,6.4659,6.4647,6.4571,6.481,6.4703,6.4812,6.4812,6.4863,6.486,6.5189,6.4898,6.4897,6.4896,6.4896,0,6.4079,6.4205,6.4193,6.4279,6.4418,6.4394,6.4533,6.455,6.459,6.4676,6.4627,6.471,6.469,6.4772,6.4763,6.4895,6.4916,6.4918,6.4914,6.4921,6.492,6.4949,6.4932,6.4905,6.4903,6.4901,6.49,0,6.433,6.4328,6.4475,6.4513,6.4525,6.4625,6.4657,6.4737,6.4741,6.4852,6.4876,6.4883,6.4976,6.497,6.5077,6.507,6.5233,6.5212,6.5215,6.521,6.5317,6.5306,6.5674,6.5719,6.5401,6.5404,6.5407,0,6.4495,6.459,6.4638,6.4692,6.4721,6.481,6.4862,6.4842,6.4898,6.4962,6.5034,6.5122,6.5191,6.5343,6.5357,6.5437,6.5416,6.554,6.5428,6.5431,6.5414,6.5407,6.5415,6.5561,6.5565,6.5567,6.557,0,6.4787,6.478,6.4857,6.4934,6.4997,6.5056,6.5111,6.5158,6.5143,6.5209,6.5303,6.5356,6.5463,6.555,6.5626,6.5651,6.5608,6.5605,6.5634,6.5641,6.5637,6.5637,6.5272,6.5596,6.5594,6.5592,6.559,6.5589,6.4998,6.5078,6.5123,6.521,6.5248,6.5299,6.5375,6.5388,6.5466,6.555,6.5534,6.5639,6.5685,6.5782,6.5814,6.5895,6.585,6.5893,6.5903,6.5913,6.5924,6.5626,6.5909,6.5908,6.5908,6.5907,6.5906,0,6.5284,6.5309,6.5389,6.5465,6.5533,6.5486,6.5543,6.5602,6.5695,6.5742,6.581,6.5917,6.6001,6.6021,6.6101,6.6162,6.6144,6.6183,6.6177,6.6183,6.5961,6.5926,6.6196,6.6196,6.6196,6.6196,6.6196,6.6196,6.5441,6.5573,6.5572,6.5722,6.5746,6.5848,6.5884,6.593,6.5966,6.6087,6.6156,6.6168,6.6204,6.6285,6.636,6.6363,6.6394,6.6441,6.6436,6.6228,6.6199,6.6171,6.6138,6.6448,6.6449,6.6651,6.6653,6.6654]},{"header":{"parameterUnit":"m.s-1","parameterCategory":1,"la1":30.2991,"la2":30.254,"lo1":-89.0895,"lo2":-89.0444,"dy":0.0017,"dx":0.0017,"nx":28,"ny":28,"refTime":"2023-08-05T09:00:00:Z","depth":0,"parameterNumber":3,"parameterNumberName":"V-component_of_WINDS"},"data":[0,0,0,0,0,0,0,0,0,0,0,0,0,0,0,0,0,0,0,0,0,0,0,0,0,0,0,0,0,0,0,0,0,0,0,0,0,0,0,0,0,0,0,0,0,0,0,0,0,0,0,0,0,0,0,0,0,0,2.941,2.9411,0,2.9476,2.9477,2.9478,2.9462,2.9461,2.946,2.9459,2.9523,2.9526,2.9529,0,0,0,0,0,0,0,0,0,0,0,0,0,2.9267,2.927,2.941,2.9411,2.9412,2.9476,2.9477,2.9478,2.9463,2.9461,2.946,2.9458,2.9522,2.9525,2.9529,0,0,0,0,0,0,0,0,0,0,0,0,0,2.9331,2.9271,2.941,2.9412,2.9413,2.9476,2.9477,2.9478,2.9463,2.9461,2.9459,2.9457,2.9521,2.9525,2.9529,2.9593,0,0,2.9542,2.9544,0,0,0,0,0,0,0,0,2.9327,2.9336,2.9411,2.9412,2.9413,2.9459,2.945,2.9517,2.9463,2.9444,2.9459,2.9457,2.9503,2.9509,2.9525,2.9596,2.9599,2.9543,2.9545,2.9547,2.9548,0,0,0,0,0,0,0,2.9323,2.9333,2.9436,2.9412,2.9414,2.9408,2.9415,2.9462,2.9483,2.9445,2.9445,2.9453,2.9503,2.9521,2.9526,2.96,2.9543,2.9547,2.9549,2.9551,2.9724,2.9726,0,0,0,0,0,0,2.9318,2.9329,2.9434,2.9438,2.9365,2.9412,2.942,2.9446,2.9483,2.9486,2.9454,2.9452,2.9514,2.9521,2.9529,2.9604,2.9547,2.9551,2.9554,2.9722,2.9725,2.9727,0,0,0,0,0,0,2.9315,2.9327,2.9432,2.9384,2.9396,2.9417,2.9446,2.9449,2.9466,2.9489,2.9492,2.9469,2.9513,2.9523,2.9577,2.9606,2.9553,2.9557,2.972,2.9723,2.9726,2.9757,0,0,0,0,0,0,2.9311,2.9326,2.9352,2.9384,2.9399,2.948,2.9448,2.9451,2.9474,2.9472,2.9504,2.9507,2.9513,2.9571,2.9581,2.9611,2.956,2.9717,2.9721,2.9725,2.9754,2.9761,2.9767,0,0,0,0,0,2.9306,2.9358,2.9354,2.9366,2.9432,2.9482,2.949,2.9496,2.9477,2.9502,2.9516,2.9506,2.9601,2.9576,2.9588,2.962,2.9715,2.972,2.9724,2.9751,2.976,2.9767,0,0,0,0,0,0,2.9329,2.9363,2.9358,2.9423,2.945,2.948,2.9512,2.9506,2.9539,2.9535,2.9539,2.9547,2.9602,2.9616,2.9588,2.9682,2.9655,2.9662,2.9671,2.968,2.9687,2.9682,2.9564,0,0,0,0,0,2.9341,2.9381,2.9408,2.9462,2.9476,2.9491,2.9514,2.9516,2.9543,2.9554,2.9573,2.9599,2.9635,2.9658,2.9692,2.9756,2.9761,2.9783,2.979,2.9795,2.9801,2.9834,2.9843,2.9742,2.9742,2.9742,0,0,2.9368,2.9391,2.9416,2.9467,2.9488,2.9527,2.9501,2.9544,2.9572,2.9561,2.9613,2.9627,2.9657,2.9715,2.9742,2.9729,2.9831,2.9801,2.9805,2.9808,2.9839,2.9849,2.9858,2.9745,2.9744,2.9744,0,0,2.9436,2.9458,2.9505,2.9527,2.9559,2.9569,2.958,2.961,2.9619,2.9672,2.9664,2.9697,2.9759,2.9779,2.9798,2.9871,2.9863,2.9882,2.9918,2.9949,2.9957,2.9964,2.9989,2.9998,2.9888,2.9888,2.9888,0,2.9464,2.9524,2.953,2.9573,2.9595,2.9586,2.9633,2.9653,2.9695,2.9709,2.9694,2.977,2.979,2.9852,2.987,2.9886,2.9897,2.9879,2.9956,2.9963,2.997,2.9993,3.0003,2.989,2.989,2.989,2.989,0,2.9556,2.9597,2.9631,2.9672,2.9698,2.9742,2.9753,2.9778,2.9778,2.9788,2.9841,2.9863,2.9901,2.9916,2.9916,2.9978,2.9968,2.9955,2.9927,2.9981,3.0003,3.0013,2.9893,2.9892,2.9892,2.9891,0,0,2.9642,2.9684,2.9696,2.9714,2.9748,2.9779,2.9822,2.986,2.988,2.9909,2.9944,2.9995,2.9982,3.0003,3.0005,3.0032,3.0087,3.0015,3.0016,3.0027,3.0155,3.0164,3.0175,3.0081,3.0083,3.0085,3.0152,0,2.9712,2.9789,2.9795,2.9864,2.99,2.9892,2.9929,2.9953,2.9964,2.9995,3.0006,3.0042,3.0023,3.0035,3.0062,3.0075,3.0113,3.007,3.0112,3.0114,3.0105,3.0187,3.0198,3.026,3.0161,3.0162,3.0163,0,2.9805,2.9836,2.9909,2.9936,2.9951,2.9985,3.0019,3.005,3.0075,3.0081,3.0104,3.0101,3.0143,3.0114,3.0171,3.0142,3.0159,3.0168,3.017,3.0174,3.0142,3.0192,3.028,3.0289,3.0177,3.0176,3.0175,0,2.9858,2.9918,2.9969,2.9984,3.0018,3.0041,3.0056,3.008,3.0102,3.0131,3.0144,3.0177,3.0195,3.022,3.0225,3.0204,3.0282,3.0254,3.0286,3.0286,3.0303,3.0301,3.0394,3.0315,3.0315,3.0315,3.0315,0,2.9935,2.998,2.9993,3.0025,3.0073,3.0078,3.0126,3.0139,3.016,3.0192,3.0187,3.0217,3.0222,3.0253,3.0257,3.0303,3.0311,3.0315,3.0316,3.0316,3.0315,3.0327,3.0322,3.0317,3.0317,3.0316,3.0316,0,3.0003,3.0014,3.0069,3.0096,3.0103,3.0138,3.016,3.0189,3.0198,3.0239,3.0248,3.0263,3.0298,3.0306,3.0348,3.0351,3.0404,3.0401,3.0396,3.0395,3.0427,3.0423,3.053,3.0543,3.0456,3.0457,3.0458,0,3.0052,3.0086,3.0116,3.0138,3.0153,3.0188,3.021,3.0215,3.0238,3.0269,3.0294,3.0329,3.0357,3.0414,3.0427,3.0458,3.0455,3.049,3.046,3.0458,3.0454,3.0452,3.0454,3.0496,3.0497,3.0498,3.0498,0,3.0136,3.0139,3.0172,3.0205,3.0232,3.0258,3.0283,3.0301,3.0309,3.0335,3.0371,3.0393,3.0436,3.047,3.0501,3.0514,3.0507,3.0508,3.0517,3.0516,3.0511,3.0513,3.0411,3.0505,3.0504,3.0504,3.0504,3.0503,3.0195,3.0224,3.025,3.0285,3.0304,3.0328,3.0356,3.0368,3.0399,3.0435,3.0436,3.0475,3.0498,3.0539,3.0554,3.0584,3.0573,3.0586,3.0589,3.0592,3.0595,3.0507,3.059,3.059,3.0589,3.0589,3.0589,0,3.0278,3.0294,3.0326,3.0362,3.0389,3.038,3.0407,3.043,3.0465,3.0488,3.0515,3.0556,3.0589,3.0604,3.0636,3.0656,3.0654,3.0664,3.0662,3.0665,3.0603,3.0592,3.0666,3.0666,3.0666,3.0666,3.0666,3.0666,3.0324,3.0373,3.0379,3.0436,3.045,3.049,3.0505,3.0526,3.0544,3.059,3.0617,3.0627,3.0646,3.0679,3.0707,3.0711,3.0722,3.0734,3.0736,3.0678,3.067,3.0662,3.0652,3.0737,3.0737,3.0795,3.0796,3.0796]}]]